Change the Weather History Date:

Thursday, January 23, 2014

  Actual Average (KNKT) Record (KNKT)
Temperature  
Mean Temperature 30 °F -  
Max Temperature 42 °F 51 °F 75 °F (1999)
Min Temperature 19 °F 32 °F 10 °F (2011)
Degree Days  
Heating Degree Days 34    
Moisture  
Dew Point 14 °F    
Average Humidity 57    
Maximum Humidity 85    
Minimum Humidity 26    
Precipitation  
Precipitation 0.00 in - - ()
Sea Level Pressure  
Sea Level Pressure 30.27 in    
Wind  
Wind Speed 2 mph (North)    
Max Wind Speed 10 mph    
Max Gust Speed -    
Visibility 10 miles    
Events      
Averages and records for this station are not official NWS values.
T = Trace of Precipitation, MM = Missing Value Source: NWS Daily Summary

Daily Weather History Graph

Daily Weather History Graph

Search for Another Location

Airport or City:

Trip Planner

Search our weather history database for the weather conditions in past years. The results will help you decide how hot, cold, wet, or windy it might be!

Date:

Astronomy

Jan. 23, 2014 Rise Set
Actual Time 7:11 AM EST 5:28 PM EST
Civil Twilight 6:44 AM EST 5:55 PM EST
Nautical Twilight 6:14 AM EST 6:25 PM EST
Astronomical Twilight 5:44 AM EST 6:56 PM EST
Moon No Moon Rise 11:04 AM EST (1/23)
Length of Visible Light 11h 10m
Length of Day
10h 16m
Waning Gibbous, 55% of the Moon is Illuminated
Jan 23
Waning Gibbous
Jan 24
Last Quarter
Jan 30
New
Feb 6
First Quarter
Feb 14
Full

Hourly Weather History & Observations

Time (EST) Temp. Windchill Dew Point Humidity Pressure Visibility Wind Dir Wind Speed Gust Speed Precip Events Conditions
12:57 AM 19.0 °F - 14.0 °F 81% 30.16 in 10.0 mi Calm Calm - N/A   Clear
1:57 AM 19.9 °F - 15.1 °F 81% 30.16 in 10.0 mi Calm Calm - N/A   Clear
2:57 AM 21.0 °F - 15.1 °F 78% 30.16 in 10.0 mi Calm Calm - N/A   Clear
3:57 AM 19.9 °F - 15.1 °F 81% 30.17 in 10.0 mi Calm Calm - N/A   Clear
4:57 AM 19.9 °F - 16.0 °F 85% 30.17 in 10.0 mi Calm Calm - N/A   Clear
5:57 AM 21.9 °F - 17.1 °F 82% 30.19 in 10.0 mi Calm Calm - N/A   Clear
6:57 AM 19.9 °F - 16.0 °F 85% 30.22 in 10.0 mi Calm Calm - N/A   Clear
7:57 AM 24.1 °F 17.0 °F 17.1 °F 75% 30.25 in 10.0 mi North 5.8 mph - N/A   Scattered Clouds
8:57 AM 28.9 °F 21.1 °F 18.0 °F 64% 30.27 in 10.0 mi North 8.1 mph - N/A   Mostly Cloudy
9:57 AM 34.0 °F 28.0 °F 16.0 °F 48% 30.29 in 10.0 mi NE 6.9 mph - N/A   Mostly Cloudy
10:57 AM 37.0 °F 31.0 °F 17.1 °F 44% 30.30 in 10.0 mi NNE 8.1 mph - N/A   Mostly Cloudy
11:57 AM 39.0 °F 32.3 °F 12.9 °F 34% 30.27 in 10.0 mi NNE 10.4 mph - N/A   Mostly Cloudy
12:57 PM 39.9 °F 35.1 °F 10.9 °F 31% 30.26 in 10.0 mi North 6.9 mph - N/A   Mostly Cloudy
1:57 PM 42.1 °F 38.4 °F 10.0 °F 27% 30.23 in 10.0 mi NW 5.8 mph - N/A   Clear
2:57 PM 41.0 °F 35.8 °F 8.1 °F 26% 30.24 in 10.0 mi WNW 8.1 mph - N/A   Mostly Cloudy
3:57 PM 39.0 °F 35.7 °F 9.0 °F 29% 30.27 in 10.0 mi Variable 4.6 mph - N/A   Mostly Cloudy
4:57 PM 37.9 °F 35.5 °F 10.0 °F 32% 30.29 in 10.0 mi NW 3.5 mph - N/A   Mostly Cloudy
5:57 PM 36.0 °F 33.3 °F 10.9 °F 36% 30.31 in 10.0 mi North 3.5 mph - N/A   Clear
6:57 PM 30.0 °F 26.5 °F 14.0 °F 51% 30.34 in 10.0 mi North 3.5 mph - N/A   Clear
7:57 PM 28.0 °F - 14.0 °F 56% 30.35 in 10.0 mi Calm Calm - N/A   Clear
8:57 PM 28.0 °F - 16.0 °F 61% 30.35 in 10.0 mi Calm Calm - N/A   Clear
9:57 PM 28.9 °F - 17.1 °F 61% 30.37 in 10.0 mi Calm Calm - N/A   Clear
10:57 PM 28.9 °F - 19.0 °F 67% 30.37 in 10.0 mi Calm Calm - N/A   Clear
11:57 PM 30.0 °F 25.2 °F 17.1 °F 59% 30.38 in 10.0 mi North 4.6 mph - N/A   Clear